Powrót do katalogu

STARLINK-1558

AktywnyŁącznośćVLEO
NORAD 46035·PAYLOAD·🇺🇸 United States

Wystrzelony Aug 7, 2020 z Cape Canaveral Space Force Station

Loading…

Następne Przeloty (najbliższe 24 godziny)

TLE

ŚwieżeSource: CelesTrak SupGP

Epoka: Sep 15, 2026, 01:23 UTC

1 46035C 20055J   26258.05812500  .00047422  00000+0  15246-2 0  2580
2 46035  53.1583 326.2768 0001192  89.6190  88.0054 15.31685540    19

Śledź STARLINK-1558 w czasie rzeczywistym z AllMySat

Download on the App Store